Regional Weather Roundup
Issued by NWS Mobile, AL

Home | Current Version | Previous Version | Text Only | Print | Product List | Glossary On
Versions: 1 2 3 4 5 6 7 8 9 10 11 12 13 14 15 16 17 18 19 20 21 22 23 24 25 26 27 28 29 30 31 32 33 34 35 36 37 38 39 40 41 42 43 44 45 46 47 48 49 50
000
ASUS44 KMOB 111712
RWRMOB
REGIONAL WEATHER ROUNDUP
NATIONAL WEATHER SERVICE MOBILE AL
1100 AM CST THU FEB 11 2016

NOTE: "FAIR" INDICATES FEW OR NO CLOUDS BELOW 12,000 FEET WITH NO
      SIGNIFICANT WEATHER AND/OR OBSTRUCTIONS TO VISIBILITY.

  * THESE STATIONS ARE PART OF THE UNIVERSITY OF SOUTH ALABAMA
    MESONET AND ARE NOT UNDER NWS OR FAA QUALITY CONTROL.

ALZ061>064-111800-
COASTAL ALABAMA

CITY           SKY/WX    TMP DP  RH WIND       PRES   REMARKS
MOBILE REG APT SUNNY     66  50  56 SW13G22   30.21F
BROOKLEY FIELD SUNNY     67  50  54 SW14G21   30.22F
USA CAMPUS*    NOT AVBL
DOG RIVER*     NOT AVBL


CITY           SKY/WX    TMP DP  RH WIND       PRES   REMARKS
MOUNT VERNON*  NOT AVBL
SARALAND*      NOT AVBL
BAY MINETTE*   NOT AVBL
LOXLEY*        NOT AVBL
ROBERTSDALE*   NOT AVBL
FAIRHOPE*      NOT AVBL
ELBERTA*       NOT AVBL
FOLEY*         NOT AVBL
GRAND BAY*     NOT AVBL
DAUPHIN ISLND* NOT AVBL
BON SCOUR NWR* NOT AVBL
GULF SHORES    MOSUNNY   65  52  60 SW18G28   30.24F

$$

ALZ051>060-111800-
INTERIOR SOUTHWEST AND SOUTH CENTRAL ALABAMA

CITY           SKY/WX    TMP DP  RH WIND       PRES   REMARKS
GREENVILLE     SUNNY     63  40  42 W14       30.15F
EVERGREEN      SUNNY     66  44  45 SW14G22   30.18F
CASTLEBERRY*   NOT AVBL
ATMORE*        NOT AVBL
DIXIE*         NOT AVBL
ANDALUSIA/OPP  SUNNY     68  42  38 W12G21    30.19
ANDALUSIA*     NOT AVBL
FLORALA APT    SUNNY     65  43  44 SW14G22   30.21F
FLORALA*       NOT AVBL

$$

FLZ001>006-111800-
WESTERN FLORIDA PANHANDLE

CITY           SKY/WX    TMP DP  RH WIND       PRES   REMARKS
PENSACOLA      SUNNY     68  48  48 W17G28    30.22F
NAS PENSACOLA  MOSUNNY   67  50  54 SW12G21   30.23F
MILTON         SUNNY     67  46  47 SW14G23   30.22F
WHTNG S FIELD  SUNNY     69  47  45 SW10G18   30.23F


CITY           SKY/WX    TMP DP  RH WIND       PRES   REMARKS
WALNUT HILL*   NOT AVBL
JAY*           NOT AVBL
DUKE FIELD     SUNNY     67  44  42 SW14G20   30.20F
CRESTVIEW      SUNNY     67  44  43 SW14      30.23F
VALPARAISO     SUNNY     65  47  53 SW16      30.23F
DESTIN         SUNNY     65  51  60 SW9       30.25S

$$

MSZ076-079-111800-
INTERIOR SOUTHEAST MISSISSIPPI

CITY           SKY/WX    TMP DP  RH WIND       PRES   REMARKS
LEAKESVILLE*   NOT AVBL
AGRICOLA*      NOT AVBL

$$

MARINE OBSERVATIONS

STATION/POSITION TIME  TEMP    WIND        PRES    WAVE
                       AIR SEA DIR/SP/G            HT/PER
                 (UTC) (F)     (DEG/KT/KT) (MB)    (FT/S)
PASCAGOULA       1600          240/  6/  9 1024.0S
PETIT BOIS ISLND 1600          230/ 17/ 20 1024.6R
KATRINA CUT      1600   59     240/ 18       N/A
CEDAR POINT      1600   57     240/ 15     1024.0R
E DAUPHIN ISLAND 1600   61     230/ 12/ 16 1024.0R
MIDDLE BAY LIGHT 1600          230/ 14     1023.7S
USCG MOBILE BAY  1600      52  250/  9/ 17 1024.0F
STATE DOCKS      1600      52              1023.3F
MEAHER PARK      1600   55     160/ 11     1023.7S
WEEKS BAY        1500   60                   N/A
FORT MORGAN      1600          250/ 21/ 22 1023.6S
12 S ORANGE BCH  1650   62 64  240/ 17/ 19 1023.5F   3/ 5
PENSACOLA BAY    1600      48  230/ 11/ 17 1024.2F

$$

SELECTED LOCATIONS ACROSS THE REGION

CITY           SKY/WX    TMP DP  RH WIND       PRES   REMARKS
NEW ORLEANS    MOSUNNY   71  55  56 W17G25    30.23F
GULFPORT       SUNNY     63  51  65 S8        30.22F
PASCAGOULA AP  SUNNY     65  52  62 SW9G23    30.23F
PASCAGOULA*    NOT AVBL
HATTIESBURG    SUNNY     69  48  47 SW17G23   30.17F
LAUREL         MOSUNNY   66  46  48 W12G21    30.16F
MERIDIAN       SUNNY     65  43  44 W14G22    30.13F
JACKSON        SUNNY     69  39  33 W16G23    30.12S
MONTGOMERY     SUNNY     61  39  44 W10       30.17F
TROY           SUNNY     63  40  42 SW13      30.18F
KINSTON*       NOT AVBL
GENEVA*        NOT AVBL
ASHFORD*       NOT AVBL
DOTHAN         SUNNY     62  41  46 W13       30.22F
PANAMA CITY    SUNNY     65  49  56 SW13G22   30.23F

$$




USA.gov is the U.S. government's official web portal to all federal, state and local government web resources and services.